Torna al catalogo

CZ-6A DEB

AttivoPO
NORAD 61101·DEBRIS·🇨🇳 China

Lanciato Aug 6, 2024 da Taiyuan Satellite Launch Center

Loading…

Prossimi Passaggi (prossime 24 ore)

TLE

AggiornatoSource: Space-Track

Epoca: Sep 14, 2026, 18:41 UTC

1 61101U 24140NT  26257.77848630  .00000173  00000-0  77346-4 0  9997
2 61101  89.0078 266.0558 0052981 280.1786  79.3429 14.17607924105902

Traccia CZ-6A DEB in tempo reale con AllMySat

Download on the App Store